Location: Chemnitz
(49.5500°N, 11.5830°E)
Time: 00:57:17
(UTC+01:00)

Tiangong 1 - Visible Passes

Search period start: 25 November 2017 00:00
Search period end: 05 December 2017 00:00
Orbit: 283 x 307 km, 42.8° (Epoch: 24 November)

Date Brightness Start Highest point End Pass type
(mag) Time Alt. Az. Time Alt. Az. Time Alt. Az.
27 Nov 3.3 18:01:16 10° S 18:02:07 11° SSE 18:02:13 11° SSE visible
28 Nov 3.0 18:06:23 10° SSW 18:07:57 15° SSE 18:08:00 15° SSE visible
29 Nov 2.9 18:11:51 10° SW 18:13:37 17° S 18:13:37 17° S visible
30 Nov 2.9 18:17:23 10° SW 18:19:08 18° S 18:19:08 18° S visible
01 Dec 3.0 18:22:56 10° SW 18:24:32 17° SSW 18:24:32 17° SSW visible
02 Dec 3.0 16:54:04 10° SW 16:55:57 18° S 16:57:48 10° SE visible
02 Dec 3.3 18:28:30 10° SW 18:29:52 15° SSW 18:29:52 15° SSW visible
03 Dec 3.1 16:59:14 10° SW 17:01:09 18° S 17:03:03 10° SE visible
03 Dec 3.7 18:34:19 10° SW 18:35:08 11° SSW 18:35:08 11° SSW visible
04 Dec 3.3 17:04:25 10° SW 17:06:13 17° S 17:08:01 10° SE visible
